EPPOEPKT

Guest
Details From EPPO - LAWICA
To EPKT - PYRZOWICE
Flight Number -
Tags generated
Created
Modified
Stats Distance 144 nm / 267 km
Max Altitude 17,200 ft / 5,243 m
Waypoints 3
Social Downloads 0
Likes 0
Share VATSIM

Download

Looking for another format? Having issues loading an existing format? Contact us
Advertisement - Login to hide

Notes

Basic altitude profile: - Ascent Rate: 2500ft/min - Ascent Speed: 250kts - Cruise Altitude: 35000ft - Cruise Speed: 420kts - Descent Rate: 1500ft/min - Descent Speed: 250kts

Route

EPPO BADNO EPKT

ID Type Via Altitude (ft/m) Position (lat/lon) Dist (leg/tot) Name
O EPPO APT - 0 / 0 52.42157 / 16.82355 - / 0 nm LAWICA
BADNO FIX - 17,200 / 5,243 51.75000 / 17.67833 51 / 51 nm
O EPKT APT - 0 / 0 50.47426 / 19.07436 92 / 144 nm PYRZOWICE

Altitude Profile

Advertisement - Login to hide

EPPO

Details ICAO EPPO (POZ)
Name LAWICA
Region Poland
Timezone Europe/Warsaw (UTC+2.0)
Stats Elevation 308 ft / 94 m (AMSL)
Location 52.421600° 16.823600°
Runways 1
Magnetic Variation 4.926° E

METAR

EPPO 251930Z 30007KT CAVOK 13/08 Q1014

Decode

TAF

TAF EPPO 251730Z 2518/2618 31010KT CAVOK BECMG 2519/2522 VRB02KT BECMG 2609/2612 25012KT

Decode

Departure Runways

ID Width Length Bearing (true/mag) Surface Threshold Overrun Markings Lighting
11 164 ft / 50 m 8,153 ft / 2,485 m 107.57° / 102.64° ASPHALT 0 ft / 0 m 0 ft / 0 m PREC-APP EDGE THRESHOLD SALS
29 164 ft / 50 m 8,153 ft / 2,485 m 287.59° / 282.67° ASPHALT 0 ft / 0 m 0 ft / 0 m PREC-APP EDGE THRESHOLD ALSF-I

EPKT

Details ICAO EPKT (KTW)
Name Katowice Airport
Region Poland
Timezone Europe/Warsaw (UTC+2.0)
Stats Elevation 995 ft / 303 m (AMSL)
Location 50.476000° 19.082100°
Runways 1
Magnetic Variation 5.266° E

METAR

EPKT 251930Z VRB01KT CAVOK 14/11 Q1014

Decode

TAF

TAF EPKT 251730Z 2518/2618 26010KT CAVOK BECMG 2520/2523 VRB02KT TEMPO 2522/2605 3000 BR BECMG 2605/2608 25010KT PROB40 TEMPO 2613/2618 SCT040CB

Decode

Destination Runways

ID Width Length Bearing (true/mag) Surface Threshold Overrun Markings Lighting
09 145 ft / 44 m 10,499 ft / 3,200 m 90.18° / 84.91° CONCRETE 0 ft / 0 m 102 ft / 31 m PREC-APP CENTERLINE EDGE THRESHOLD SALS REIL-OMNI
27 145 ft / 44 m 10,499 ft / 3,200 m 270.21° / 264.95° CONCRETE 1,056 ft / 322 m 98 ft / 30 m PREC-APP CENTERLINE EDGE THRESHOLD CALVERT REIL-OMNI

Approach Navaids

Runway Type Ident Frequency Range Bearing (true/mag) Slope Elevation
27 LOC-ILS IKTO 109.90 MHz 18 nm / 33 km 270.20° / 264.93 ° - 995 ft / 303 m (AMSL)
27 LOC-ILS KAT 109.90 MHz 18 nm / 33 km 270.18° / 264.91 ° - 995 ft / 303 m (AMSL)
27 GS KAT 109.90 MHz 10 nm / 19 km 270.38° / 265.11 ° 3.20° 995 ft / 303 m (AMSL)
27 GS IKTO 109.90 MHz 10 nm / 19 km 270.20° / 264.93 ° 3.00° 995 ft / 303 m (AMSL)
27 OM OM - - 270.20° / 264.93 ° - 995 ft / 303 m (AMSL)
27 MM MM - - 270.20° / 264.93 ° - 995 ft / 303 m (AMSL)

Popular Alternatives